www.pogodaiklimat.ru
ПОГОДА в Манисти
Время
и дата
21:47 29.11
21:56 29.11
22:56 29.11
23:56 29.11
00:56 30.11
01:56 30.11
02:56 30.11
03:56 30.11
04:56 30.11
05:56 30.11
06:56 30.11
07:56 30.11
08:56 30.11
09:56 30.11
10:56 30.11
11:56 30.11
12:56 30.11
13:56 30.11
14:56 30.11
15:56 30.11
16:56 30.11
17:56 30.11
18:56 30.12
19:56 30.11
20:56 30.11
21:22 30.11
21:47 30.11
21:56 30.11
22:30 30.11
22:56 30.11
23:56 30.11
00:56 01.12
01:56 01.12
02:56 01.12
03:56 01.12
04:56 01.12
05:56 01.12
06:56 01.12
07:56 01.12
08:56 01.12
09:56 01.12
10:56 01.12
11:56 01.12
12:56 01.12
13:56 01.12
14:56 01.12
15:56 01.12
16:07 01.12
Ветер
(напр.,м/с)
Видим. Явления Облачность Т
(С)
Тd
(С)
f
(%)
Тe
(С)
Тes
(С)
Комфортность P
(гПа)
Po
(гПа)
Тmin
(С)
Tmax
(С)
R
(мм)
R24
(мм)
S
(см)
С 2
{5}
16 км слабый дождь 10/10 750 м +3.0 -1.0 75 -2 -2 990.9
С 2
{4}
16 км слабый дождь 10/10 780 м +3.3 -1.7 70 -2 -2 1014.1 990.9
С 3
{5}
16 км 10/10 840 м +2.2 -2.8 69 -3 -3 1014.9 991.6
С 3
{4}
16 км слабый дождь 10/10 720 м +2.2 -2.2 73 -4 -4 1015.0 991.6
С 4
{5}
16 км слабый дождь 10/10 660 м +1.7 -2.2 75 -5 -5 1014.7 991.6 +1.7 +5.0
С 3
{4}
16 км слабый дождь 10/10 600 м +1.1 -2.2 79 -6 -6 1015.0 991.9
С 4
{4}
16 км слабый дождь 10/10 660 м +1.1 -2.8 75 -6 -6 1015.0 991.9
С 4
{5}
16 км слабый дождь 10/10 600 м +0.6 -3.3 75 -7 -7 1014.7 991.6
С 4
{4}
16 км слабый дождь 10/10 600 м +0.6 -3.3 75 -7 -7 1014.9 991.6
С 4
{5}
16 км 10/10 540 м 0.0 -3.3 78 -7 -7 1014.9 991.6
С 3
{5}
16 км 10/10 540 м 0.0 -3.3 78 -6 -6 1015.2 991.9 +1.7
С 3
{5}
16 км 10/10 540 м 0.0 -3.3 78 -7 -7 1014.9 991.6
С 3
{4}
16 км 10/10 540 м 0.0 -2.8 81 -7 -7 1015.1 991.9
С 4
{5}
14 км слабый снег 10/10 540 м 0.0 -2.8 81 -7 -7 1015.1 991.9
С 2
{4}
16 км 10/10 600 м 0.0 -3.3 78 -6 -6 1014.9 991.6
С 3
{4}
16 км 10/10 690 м +0.6 -3.3 75 -6 -6 1014.0 990.6
С 2
{5}
16 км слабый дождь 10/10 630 м +0.6 -3.3 75 -5 -5 1013.9 990.6 +0.6
С 3
{5}
16 км 10/10 630 м 0.0 -3.9 75 -7 -7 1013.5 990.3
С 3
{5}
16 км неопределенные осадки 10/10 690 м 0.0 -3.9 75 -6 -6 1013.5 990.3
С 3
{4}
16 км 10/10 690 м 0.0 -3.9 75 -7 -7 1013.8 990.6
С 3
{5}
16 км неопределенные осадки 10/10 690 м -0.6 -4.4 75 -8 -8 1014.4 990.9
С 2
{4}
16 км 10/10 690 м -0.6 -4.4 75 -7 -7 1014.7 991.2
С 3
{4}
16 км 10/10 810 м -0.6 -5.0 72 -7 -7 1014.6 991.2 -0.6 +0.6
С 3
{5}
16 км 10/10 960 м -0.6 -5.6 69 -7 -7 1014.7 991.2
С 3
{4}
16 км 10/10 900 м -0.6 -5.6 69 -7 -7 1014.6 991.2
С 3
{4}
16 км 10/10 840 м -1.0 -5.0 74 -8 -8 990.9
С 2
{5}
16 км 10/10 900 м -1.0 -6.0 69 -6 -6 990.9
С 2
{4}
16 км 10/10 900 м -0.6 -5.6 69 -7 -7 1014.5 991.2
С 2
{4}
16 км 10/10 840 м -1.0 -6.0 69 -7 -7 990.9
С 2 16 км 10/10 840 м -0.6 -5.0 72 -7 -7 1014.2 990.9
С 3
{4}
16 км 10/10 780 м -0.6 -5.0 72 -7 -7 1014.1 990.6
С 3
{4}
16 км 10/10 720 м -0.6 -4.4 75 -7 -7 1013.9 990.6 -0.6 -0.6
С 3
{4}
16 км 10/10 660 м -0.6 -4.4 75 -7 -7 1013.7 990.3
С 2 16 км 10/10 660 м -0.6 -3.9 78 -6 -6 1014.0 990.6
С 1
{4}
16 км 10/10 660 м -0.6 -3.9 78 -5 -5 1013.7 990.3
С 3
{5}
16 км 10/10 600 м -0.6 -3.9 78 -8 -8 1013.7 990.3
С 2
{4}
16 км 10/10 600 м -0.6 -3.9 78 -7 -7 1013.9 990.6
С 2 16 км 10/10 600 м -0.6 -3.3 82 -6 -6 1014.1 990.6 -0.6 -0.6
С 2
{4}
16 км 10/10 660 м -0.6 -4.4 75 -7 -7 1014.6 991.2
С 2
{4}
16 км 10/10 660 м -0.6 -3.9 78 -6 -6 1015.0 991.6
С 1 16 км 10/10 720 м 0.0 -3.9 75 -4 -4 1015.3 991.9
С 3
{4}
16 км 10/10 720 м +1.1 -4.4 67 -5 -5 1015.5 992.2
С 3
{5}
16 км 10/10 660 м +1.1 -3.9 69 -5 -5 1015.4 991.9
С 3
{4}
16 км 10/10 660 м +1.7 -3.3 69 -4 -4 1015.4 991.9 -0.6 +1.7
С 3
{5}
16 км 5/5 660 м +2.8 -3.3 64 -3 -3 1014.9 991.6
С 3
{4}
16 км 8/8 720 м +2.2 -2.8 69 -4 -4 1015.2 991.9
С 3
{4}
16 км 8/8 780 м +2.2 -3.9 64 -4 -4 1015.8 992.2
С 3
{5}
16 км 5/5 840 м +2.0 -4.0 64 -4 -4 992.6
Местоположение метеостанции Manistee County-Blacker Airport: широта 44.2667 долгота -86.2500 высота над уровнем моря 189 м.
В архиве по умолчанию представлена погода в Манисти за последние 1-2 суток. Обновление информации о фактической погоде в базе происходит ежечасно! Архивные данные за месяц целиком и за предыдущие месяцы Вы можете получить, выбрав интересующий диапазон дат из раскрывающегося списка и нажав кнопку "Ввод!".
Внимание! Архив погоды МЕТАР в базе сайта по станциям, не включенным в климатический монитор, хранится не более 60 дней. Нет смысла пытаться выбрать более раннюю дату.
*Определитесь, кто Вы:
Внимание! Время в таблицах - местное (без учета летнего времени). Для получения всемирного времени необходимо вычесть поправку, которая равна -5 ч.
Смотрите также архив погоды в соседних городах и на ближайших метеорологических станциях:
Партнеры нашего сайта:      
Пояснения к столбцам:
  • Ветер - указаны скорость ветра в м/с - средняя за 10 мин, порывы в срок и между сроками (в фигурных скобках) и направление, откуда дует ветер: С - северный,
  • СВ - северо-восточный, В - восточный, ЮВ - юго-восточный, Ю - южный, ЮЗ - юго-западный, З - западный, СЗ - северо-западный.
  • Видимость - горизонтальная дальность видимости в метрах или километрах. При видимости от 1 до 10 км при отсутствии осадков обычно наблюдается дымка, при ухудшении видимости до 1 км и менее - туман. В сухую погоду видимость может ухудшаться дымом, пылью или мглою.
  • Явления - указаны атмосферные явления, наблюдавшиеся в срок или в последний час перед сроком; фигурными скобками обозначены явления, наблюдавшиеся между сроками (за 1-3 часа до срока); квадратными скобками обозначены град или гололедные отложения с указанием их диаметра в мм.
  • Облачность - указаны через наклонную черту общая и нижняя облачность в баллах и высота нижней границы облаков в метрах; квадратными скобками обозначены формы облаков: Ci - перистые, Cs - перисто-слоистые, Cc - перисто-кучевые, Ac - высококучевые, As - высокослоистые, Sc - слоисто-кучевые, Ns - слоисто-дождевые, Cu - кучевые, Cb - кучево-дождевые. Подробнее классификацию облаков см. в Атласе облаков (PDF).
  • T - Температура воздуха - температура, измеренная на высоте 2 м над землей.
  • Td - Температура точки росы - температура, при понижении до которой содержащийся в воздухе водяной пар достигнет насыщения.
  • f - Относительная влажность воздуха - влажноcть воздуха, измеренная на высоте 2 м над землей.
  • Te - Эффективная температура - температура, которую ощущает одетый по сезону человек в тени. Характеристика душности погоды. При расчете учитывается влияние влажности воздуха и скорости ветра на теплоощущения человека.
  • Tes - Эффективная температура на солнце - температура, которую ощущает человек, с поправкой на солнечный нагрев. Характеристика знойности погоды. Зависит от высоты солнца над горизонтом, облачности и скорости ветра. Ночью, в пасмурную погоду, а также при ветре 12 м/с и более поправка равна нулю.
  • P - Атмосферное давление - приведенное к уровню моря атмосферное давление.
  • Po - Атмосферное давление - измеренное на уровне метеостанции атмосферное давление.
  • Tmin - Минимальная температура - минимум температуры воздуха на высоте 2 м над землей.
  • Tmax - Максимальная температура - максимум температуры воздуха на высоте 2 м над землей.
  • R - Количество осадков - Количество выпавших осадков за период времени, мм. При наведении курсора мыши на число - период времени, за который выпало указанное количество осадков.
  • R24 - Количество осадков - Количество выпавших осадков за 24 часа, мм.
  • S - Снежный покров - Высота снежного покрова, см. При наведении курсора мыши на число - состояние снежного покрова и степень покрытия местности в баллах.